EHI
0 0 0 0 0 0 0 0 0 0 0 0 0 0 0 0 0 0 0 0 0 0 0 0 0 0 0 0 0 0 0 0 0 0 0 0 0 0 0 0 0 0 0 0
0 0 0 0 0 0 0 0 0 0 0 0 0 0 0 0 0 0 0 0 0 0 0 0 0 0 0 0 0 0 0 0 0 0 0 0 0 0 0 0 0 0 0 0
0 0 0 0 0 0 0 0 0 0 0 0 0 0 0 0 0 0 0 0 0 0 0 0 0 0 0 0 0 0 0 0 0 0 0 0 0 0 0 0 0 0 0 0
0 0 0 0 0 0 0 0 0 0 0 0 0 0 0 0 0 0 0 0 0 0 0 0 0 0 0 0 0 0 0 0 0 0 0 0 0 0 0 0 0 0 0 0
0 0 0 0 0 0 0 0 0 0 0 0 0 0 0 0 0 0 0 0 0 0 0 0 0 0 0 0 0 0 0 0 0 0 0 0 0 0 0 0 0 0 0 0
0 0 0 0 0 0 0 0 0 0 0 0 0 0 0 0 0 0 0 0 0 0 0 0 0 0 0 0 0 0 0 0 0 0 0 0 0 0 0 0 0 0 0 0
0 0 0 0 0 0 0 0 0 0 0 0 0 0 0 0 0 0 0 0 0 0 0 0 0 0 0 0 0 0 0 0 0 0 0 0 0 0 0 0 0 0 0 0
0 0 0 0 0 0 0 0 0 0 0 0 0 0 0 0 0 0 0 0 0 0 0 0 0 0 0 0 0 0 0 0 0 0 0 0 0 0 0 0 0 0 0 0
0 0 0 0 0 0 0 0 0 0 0 0 0 0 0 0 0 0 0 0 0 0 0 0 0 0 0 0 0 0 0 0 0 0 0 0 0 0 0 0 0 0 0 0
0 0 0 0 0 0 0 0 0 0 0 0 0 0 0 0 0 0 0 0 0 0 0 0 0 0 0 0 0 0 0 0 0 0 0 0 0 0 0 0 0 0 0 0
0 0 0 0 0 0 0 0 0 0 0 0 0 0 0 0 0 0 0 0 0 0 0 0 0 0 0 0 0 0 0 0 0 0 0 0 0 0 0 0 0 0 0 0
0 0 0 0 0 0 0 0 0 0 0 0 0 0 0 0 0 0 0 0 0 0 0 0 0 0 0 0 0 0 0 0 0 0 0 0 0 0 0 0 0 0 0 0
0 0 0 0 0 0 0 0 0 0 0 0 0 0 0 0 0 0 0 0 0 0 0 0 0 0 0 0 0 0 0 0 0 0 0 0 0 0 0 0 0 0 0 0
0 0 0 0 0 0 0 0 0 0 0 0 0 0 0 0 0 0 0 0 0 0 0 0 0 0 0 0 0 0 0 0 0 0 0 0 0 0 0 0 0 0 0 0
0 0 0 0 0 0 0 0 0 0 0 0 0 0 0 0 0 0 0 0 0 0 0 0 0 0 0 0 0 0 0 0 0 0 0 0 0 0 0 0 0 0 0 0
0 0 0 0 0 0 0 0 0 0 0 0 0 0 0 0 0 0 0 0 0 0 0 0 0 0 0 0 0 0 0 0 0 0 0 0 0 0 0 0 0 0 0 0
0 0 0 0 0 0 0 0 0 0 0 0 0 0 0 0 0 0 0 0 0 0 0 0 0 0 0 0 0 0 0 0 0 0 0 0 0 0 0 0 0 0 0 0
0 0 0 0 0 0 0 0 0 0 0 0 0 0 0 0 0 0 0 0 0 0 0 0 0 0 0 0 0 0 0 0 0 0 0 0 0 0 0 0 0 0 0 0
0 0 0 0 0 0 0 0 0 0 0 0 0 0 0 0 0 0 0 0 0 0 0 0 0 0 0 0 0 0 0 0 0 0 0 0 0 0 0 0 0 0 0 0
0 0 0 0 0 0 0 0 0 0 0 0 0 0 0 0 0 0 0 0 0 0 0 0 0 0 0 0 0 0 0 0 0 0 0 0 0 0 0 0 0 0 0 0
0 0 0 0 0 0 0 0 0 0 0 0 0 0 0 0 0 0 0 0 0 0 0 0 0 0 0 0 0 0 0 0 0 0 0 0 0 0 0 0 0 0 0 0
0 0 0 0 0 0 0 0 0 0 0 0 0 0 0 0 0 0 0 0 0 0 0 0 0 0 0 0 0 0 0 0 0 0 0 0 0 0 0 0 0 0 0 0
0 0 0 0 0 0 0 0 0 0 0 0 0 0 0 0 0 0 0 0 0 0 0 0 0 0 0 0 0 0 0 0 0 0 0 0 0 0 0 0 0 0 0 0
0 0 0 0 0 0 0 0 0 0 0 0 0 0 0 0 0 0 0 0 0 0 0 0 0 0 0 0 0 0 0 0 0 0 0 0 0 0 0 0 0 0 0 0
0 0 0 0 0 0 0 0 0 0 0 0 0 0 0 0 0 0 0 0 0 0 0 0 0 0 0 0 0 0 0 0 0 0 0 0 0 0 0 0 0 0 0 0
0 0 0 0 0 0 0 0 0 0 0 0 0 0 0 0 0 0 0 0 0 0 0 0 0 0 0 0 0 0 0 0 0 0 0 0 0 0 0 0 0 0 0 0
0 0 0 0 0 0 0 0 0 0 0 0 0 0 0 0 0 0 0 0 0 0 0 0 0 0 0 0 0 0 0 0 0 0 0 0 0 0 0 0 0 0 0 0
Wind_Speed
13 11 9 12 13 15 18 18 16 19 21 23 20 18 17 16 15 15 15 15 14 14 14 14 14 13 12 12 11 11 11 11 11 11 11 11 10 10 10 9 9 8 9 9
10 12 13 16 19 19 21 22 24 25 27 22 19 15 14 15 14 14 15 15 15 15 14 14 13 13 13 12 11 11 11 11 11 11 11 11 10 9 9 8 7 7 7 9
8 6 9 16 17 19 17 16 16 21 20 15 15 14 14 13 13 14 14 15 15 14 13 13 13 12 12 12 11 11 11 11 11 11 11 11 10 8 7 7 7 7 8 8
5 5 14 8 3 10 15 16 18 18 17 15 15 14 14 13 13 13 14 14 13 12 12 12 12 12 11 10 10 10 11 10 11 11 11 11 9 7 7 6 7 7 7 7
6 9 14 10 6 8 10 12 14 17 18 16 13 13 12 9 10 12 13 13 12 11 11 12 12 11 10 10 10 10 10 10 11 11 11 10 9 8 7 6 6 6 6 7
7 9 11 5 3 4 4 10 8 10 12 10 8 10 9 8 10 11 12 11 11 10 10 11 11 10 10 10 10 10 11 11 11 11 10 9 9 9 7 6 6 6 6 6
13 12 13 5 6 7 7 6 1 5 8 7 8 10 11 11 11 11 12 11 10 10 10 10 9 9 10 10 11 11 11 11 11 10 9 9 9 7 6 6 6 6 6 6
10 12 13 6 10 10 8 4 4 6 7 8 10 12 12 12 12 11 11 11 10 9 10 9 8 8 10 10 11 11 11 10 10 10 8 7 8 6 6 5 5 5 5 4
11 11 5 8 9 7 5 7 7 8 8 9 11 11 11 11 11 11 10 10 9 9 10 9 8 8 10 10 10 10 10 10 10 10 8 7 7 6 5 4 4 4 4 3
9 13 11 10 12 11 10 10 9 9 9 9 11 11 11 10 10 10 10 9 8 9 10 9 8 8 9 9 9 10 10 10 9 9 8 7 5 5 5 4 4 4 4 4
13 13 11 12 13 13 12 11 10 10 10 10 10 11 10 10 9 9 8 8 7 8 9 9 9 9 9 9 9 10 10 9 9 8 8 7 6 5 5 5 5 6 4 4
12 10 9 9 8 9 10 10 10 10 10 8 8 10 10 9 9 8 8 7 7 8 9 9 9 9 9 8 9 9 9 8 7 7 6 6 6 6 6 6 8 8 7 7
12 9 9 9 8 8 8 8 8 7 8 8 8 8 8 8 7 7 7 7 8 8 9 8 8 9 9 8 8 9 9 8 7 7 6 6 5 5 6 6 6 6 7 8
11 9 10 10 9 8 7 6 5 6 6 7 7 6 6 7 7 7 7 7 7 8 8 7 8 9 9 9 9 9 9 8 8 6 6 6 5 5 4 5 5 5 6 7
10 10 10 8 7 5 4 4 5 5 5 5 5 5 6 6 7 7 7 7 7 7 7 7 8 9 9 8 8 9 8 6 6 6 6 5 5 4 4 4 4 4 4 5
7 7 7 7 7 5 4 4 5 5 5 5 5 5 5 6 6 6 6 6 6 7 7 7 8 9 9 8 8 7 6 8 8 6 5 5 4 3 3 3 3 3 3 4
6 6 6 6 6 6 5 5 5 5 5 5 5 5 4 5 5 5 6 6 6 6 7 7 8 9 8 8 7 6 6 7 9 6 5 5 4 3 3 3 3 3 3 4
6 6 5 5 5 5 4 4 4 4 4 4 4 4 4 4 5 6 6 6 6 6 6 7 8 8 8 8 6 5 5 5 5 5 5 4 4 3 2 2 2 3 3 3
2 2 2 2 3 2 2 2 2 3 3 2 3 3 3 4 4 5 6 5 6 7 7 8 11 8 8 8 8 5 5 5 5 5 4 5 4 2 2 2 2 2 2 2
1 0 0 0 0 0 1 1 1 2 2 2 2 2 3 4 4 5 5 5 4 5 7 8 8 7 7 7 8 5 5 5 5 4 4 3 3 2 2 2 2 2 2 2
1 1 2 1 2 1 1 1 1 1 2 2 2 2 3 4 4 4 5 5 5 6 7 9 6 6 6 7 8 5 5 5 4 4 4 4 3 3 2 2 2 2 2 2
1 1 1 1 2 2 2 1 1 1 1 2 2 2 3 4 4 4 4 4 6 8 7 5 5 8 9 9 5 5 5 4 4 4 4 3 3 3 2 2 2 2 2 2
1 1 1 1 1 1 2 2 1 1 1 2 3 3 4 4 4 4 4 4 5 8 7 5 8 11 12 6 5 5 5 4 4 4 3 3 3 3 2 2 2 2 1 1
1 1 1 1 1 1 1 2 2 2 2 3 3 3 3 3 3 3 4 7 9 9 6 8 11 12 10 5 5 5 4 4 4 4 3 3 3 2 2 2 2 1 1 1
1 1 1 1 0 1 1 2 2 2 2 2 3 3 3 3 3 4 5 6 8 9 6 8 11 11 7 5 5 5 4 4 4 4 3 3 3 2 2 2 1 1 1 0
1 1 1 1 1 1 1 1 2 2 2 3 3 3 3 3 4 4 4 5 7 8 6 5 6 6 5 5 5 5 4 5 5 3 2 2 2 2 1 1 2 1 1 0
1 1 1 1 1 1 1 2 2 2 3 3 4 4 4 4 4 4 5 5 5 5 5 5 5 4 5 5 5 4 4 4 3 2 2 2 2 1 1 1 1 1 0 1
Wind_Direction
257 264 249 241 234 218 220 231 247 260 268 279 290 297 301 301 302 303 304 305 305 306 308 310 311 310 309 307 306 307 304 303 303 305 302 295 290 287 286 278 272 267 259 255
257 252 252 258 250 237 235 240 247 262 271 276 286 293 294 298 302 303 305 306 306 306 307 309 311 312 310 309 308 307 305 303 305 307 306 301 294 292 290 280 274 271 268 260
259 262 270 256 242 230 228 227 234 249 261 280 287 290 296 301 301 300 302 305 305 303 305 308 310 310 309 309 308 307 307 308 310 310 310 307 302 295 290 282 276 272 270 265
259 254 246 254 206 220 232 241 237 249 265 276 282 293 296 291 292 295 300 302 302 302 304 307 309 310 309 308 309 309 310 312 314 312 311 310 308 300 290 285 278 272 270 267
226 249 267 266 223 205 222 254 240 244 260 273 288 296 287 289 291 294 300 301 300 301 303 306 309 312 311 310 311 312 313 313 314 313 312 309 310 305 297 287 282 277 272 270
222 241 253 263 159 171 213 263 241 236 255 272 286 289 301 319 308 301 302 300 301 303 303 304 309 313 311 312 313 315 316 315 312 310 309 306 306 301 298 292 284 283 278 277
229 243 260 260 150 158 225 271 263 237 255 265 265 277 302 308 303 302 303 303 303 303 302 305 311 311 309 312 316 319 317 314 314 314 310 303 303 300 302 303 299 296 291 286
215 231 248 168 161 205 251 317 283 273 269 268 274 286 293 296 299 302 302 304 306 304 302 305 310 308 307 311 315 317 316 315 318 319 315 310 307 302 303 304 301 300 294 292
210 229 272 180 214 245 283 278 282 281 279 278 282 286 291 293 296 298 298 301 302 300 301 304 308 308 306 312 317 317 316 317 319 319 315 316 313 314 314 313 312 314 310 308
242 253 256 248 254 259 260 266 276 277 278 276 279 284 288 290 293 296 297 297 299 299 299 304 311 309 306 311 315 315 314 316 318 320 320 322 319 311 310 312 316 317 318 319
248 262 271 257 248 255 261 264 270 273 274 275 276 279 284 288 290 293 296 298 299 297 299 303 309 307 309 312 313 312 312 314 316 316 317 320 320 315 311 310 308 307 308 314
245 249 244 263 261 260 261 264 268 272 276 275 270 276 282 284 288 291 294 297 298 298 300 304 307 307 311 313 311 309 310 314 314 314 315 316 317 318 318 309 316 317 316 312
256 266 259 272 276 270 267 270 273 270 272 278 277 276 280 284 289 290 292 298 299 299 301 303 305 308 313 314 309 305 305 309 310 312 312 312 314 318 325 336 343 341 341 340
252 258 261 261 265 266 266 270 274 274 274 274 279 282 281 283 287 290 295 300 299 299 301 303 306 310 315 314 310 306 305 306 307 307 308 308 309 312 315 324 331 343 352 357
250 248 255 269 271 267 266 266 267 272 279 283 283 283 283 283 287 294 300 302 301 301 305 308 309 312 317 316 311 308 307 308 308 306 306 306 308 310 313 316 319 330 343 357
260 259 256 255 256 258 256 254 260 272 279 283 285 286 287 285 290 296 302 305 304 304 307 309 310 313 317 316 312 307 305 310 313 307 306 309 309 309 313 319 326 336 340 342
252 256 252 254 254 255 255 255 260 270 276 278 284 291 291 291 295 302 309 311 306 303 306 309 310 314 316 316 314 308 307 308 312 309 308 308 306 303 308 314 318 324 323 329
250 257 254 256 253 253 256 261 263 268 274 282 288 284 283 287 294 302 309 312 312 310 314 317 315 318 317 317 316 309 307 309 308 307 308 310 309 307 311 315 325 331 337 351
263 255 256 256 251 240 245 256 267 278 286 286 281 283 290 295 300 305 309 311 313 314 320 321 321 321 317 319 320 309 310 311 311 312 315 318 318 319 323 331 336 341 346 347
351 330 152 89 26 269 252 278 287 293 296 288 283 291 299 305 309 309 308 304 308 311 314 318 319 317 317 318 320 311 309 308 308 312 317 320 322 326 329 336 340 345 353 351
22 54 75 76 56 36 12 311 291 300 310 302 288 291 298 305 308 307 305 305 316 318 316 317 319 317 317 318 315 310 307 305 307 311 314 317 319 323 330 336 340 343 347 352
13 50 60 62 62 31 7 359 349 327 324 324 317 308 302 305 308 304 293 293 310 318 318 315 317 320 324 323 314 311 307 305 306 309 311 313 313 316 322 326 330 335 338 345
347 14 38 41 46 22 2 359 350 334 318 311 305 302 302 302 304 303 308 314 315 318 318 313 321 325 328 325 320 314 310 308 305 304 305 306 307 308 310 315 314 317 325 343
13 22 23 27 47 39 351 340 342 336 318 306 302 298 297 302 304 298 299 311 318 319 315 317 323 327 328 325 320 317 313 309 304 302 302 303 304 304 307 309 307 317 347 7
22 20 21 28 3 324 324 328 328 323 318 316 317 315 305 298 296 306 310 311 316 319 316 319 324 328 327 318 317 316 315 310 306 300 294 298 302 307 311 317 318 324 346 7
2 351 340 330 318 309 307 307 311 317 319 319 322 324 323 315 305 301 304 310 313 316 317 316 320 322 320 315 314 314 313 313 314 315 315 313 313 317 326 339 332 331 350 53
10 3 350 336 334 327 313 305 304 309 312 312 313 316 318 315 313 314 314 314 317 317 315 315 316 317 316 315 315 316 316 316 319 323 324 319 317 321 327 327 320 321 32 119